Location: Laterina
(43.5167°N, 11.7167°E)
Time: 06:51:25
(UTC+00:00)

Cosmos 2026 Rocket - Pass Details

Date: 24 January 2021
Orbit: 940 x 1000 km, 82.9° (Epoch: 08 March)

Event Time Altitude Azimuth Distance (km) Brightness Sun altitude
Rises 04:05:29 0° 360° (N) 3,714 7.0 -27.4°
Reaches altitude 10° 04:08:21 10° 11° (N) 2,768 6.5 -26.8°
Maximum altitude 04:13:55 31° 72° (ENE) 1,674 5.8 -25.8°
Drops below altitude 10° 04:19:28 10° 133° (SE) 2,766 7.0 -24.8°
Sets 04:22:19 0° 143° (SE) 3,710 7.6 -24.3°
